• In Hungary
  • List of Countries
  • For 7 days
  • Water Temperature
  • Satellite Maps
  • Weather Map
  • News
  • Weather Widgets
  • user-avatar
    Login

    Hourly Weather Puerto Viejo

    Today, 18 February, Sunday

    Time Temperature Precipitation Wind Pressure Humidity
    00:00 +23°C° 0 mm 1 mps 750 mmHg 93%
    01:00 +22°C° 0.1 mm 1 mps 750 mmHg 93%
    02:00 +22°C° 0.1 mm 1 mps 750 mmHg 92%
    03:00 +22°C° 0.1 mm 1 mps 750 mmHg 92%
    04:00 +22°C° 0.1 mm 1 mps 750 mmHg 92%
    05:00 +22°C° 0.1 mm 1 mps 750 mmHg 92%
    06:00 +22°C° 0.1 mm 1 mps 750 mmHg 92%
    07:00 +24°C° 0.2 mm 1 mps 750 mmHg 86%
    08:00 +26°C° 0.2 mm 2 mps 751 mmHg 80%
    09:00 +27°C° 0.2 mm 2 mps 751 mmHg 75%
    10:00 +28°C° 0.2 mm 3 mps 751 mmHg 70%
    11:00 +29°C° 0.2 mm 3 mps 750 mmHg 66%
    12:00 +30°C° 0.2 mm 3 mps 750 mmHg 62%
    13:00 +30°C° 0.1 mm 3 mps 749 mmHg 62%
    14:00 +30°C° 0.1 mm 3 mps 749 mmHg 63%
    15:00 +30°C° 0.1 mm 3 mps 748 mmHg 63%
    16:00 +28°C° 0.1 mm 3 mps 748 mmHg 71%
    17:00 +26°C° 0.1 mm 2 mps 748 mmHg 79%
    18:00 +25°C° 0.1 mm 1 mps 749 mmHg 87%
    19:00 +24°C° 0.1 mm 1 mps 749 mmHg 88%
    20:00 +24°C° 0.1 mm 1 mps 750 mmHg 89%
    21:00 +23°C° 0.1 mm 1 mps 750 mmHg 91%
    22:00 +23°C° 0.1 mm 1 mps 750 mmHg 90%
    23:00 +23°C° 0.1 mm 1 mps 750 mmHg 90%

    Tomorrow, 19 February, Monday

    Time Temperature Precipitation Wind Pressure Humidity
    00:00 +23°C° 0.1 mm 1 mps 750 mmHg 89%
    01:00 +23°C° 0.1 mm 1 mps 749 mmHg 89%
    02:00 +22°C° 0.1 mm 1 mps 749 mmHg 89%
    03:00 +22°C° 0.1 mm 1 mps 749 mmHg 88%
    04:00 +22°C° 0 mm 1 mps 749 mmHg 88%
    05:00 +22°C° 0 mm 1 mps 749 mmHg 88%
    06:00 +22°C° 0 mm 1 mps 749 mmHg 88%
    07:00 +24°C° 0 mm 1 mps 750 mmHg 80%
    08:00 +27°C° 0 mm 2 mps 750 mmHg 73%
    09:00 +29°C° 0 mm 2 mps 751 mmHg 66%
    10:00 +30°C° 0.1 mm 3 mps 750 mmHg 62%
    11:00 +31°C° 0.1 mm 3 mps 750 mmHg 59%
    12:00 +33°C° 0.1 mm 4 mps 749 mmHg 56%
    13:00 +33°C° 0.1 mm 4 mps 749 mmHg 57%
    14:00 +32°C° 0.1 mm 4 mps 748 mmHg 58%
    15:00 +30°C° 0.1 mm 3 mps 747 mmHg 60%
    16:00 +29°C° 0 mm 3 mps 748 mmHg 68%
    17:00 +27°C° 0 mm 2 mps 748 mmHg 76%
    18:00 +25°C° 0 mm 2 mps 748 mmHg 84%
    19:00 +25°C° 0 mm 1 mps 749 mmHg 86%
    20:00 +24°C° 0 mm 1 mps 749 mmHg 89%
    21:00 +23°C° 0 mm 1 mps 750 mmHg 91%
    22:00 +23°C° 0 mm 1 mps 750 mmHg 91%
    23:00 +23°C° 0 mm 1 mps 750 mmHg 91%

    Day after tomorrow, 20 February, Tuesday

    Time Temperature Precipitation Wind Pressure Humidity
    00:00 +23°C° 0 mm 1 mps 750 mmHg 91%
    01:00 +22°C° 0.1 mm 1 mps 749 mmHg 90%
    02:00 +22°C° 0.1 mm 1 mps 749 mmHg 89%
    03:00 +22°C° 0.1 mm 1 mps 749 mmHg 89%
    04:00 +22°C° 0.1 mm 1 mps 749 mmHg 89%
    05:00 +22°C° 0.1 mm 1 mps 749 mmHg 89%
    06:00 +22°C° 0.1 mm 1 mps 750 mmHg 88%
    07:00 +24°C° 0 mm 1 mps 750 mmHg 81%
    08:00 +26°C° 0 mm 2 mps 751 mmHg 74%
    09:00 +29°C° 0 mm 3 mps 751 mmHg 66%
    10:00 +30°C° 0.1 mm 3 mps 751 mmHg 61%
    11:00 +31°C° 0.1 mm 3 mps 750 mmHg 56%
    12:00 +34°C° 0.1 mm 4 mps 750 mmHg 52%
    13:00 +33°C° 0 mm 4 mps 749 mmHg 53%
    14:00 +33°C° 0 mm 4 mps 749 mmHg 55%
    15:00 +31°C° 0 mm 3 mps 748 mmHg 56%
    16:00 +29°C° 0 mm 3 mps 748 mmHg 65%
    17:00 +27°C° 0 mm 2 mps 749 mmHg 74%
    18:00 +25°C° 0 mm 1 mps 749 mmHg 84%
    19:00 +25°C° 0 mm 1 mps 750 mmHg 87%
    20:00 +24°C° 0 mm 1 mps 750 mmHg 90%
    21:00 +23°C° 0 mm 1 mps 751 mmHg 93%
    22:00 +23°C° 0.1 mm 1 mps 751 mmHg 91%
    23:00 +23°C° 0.1 mm 1 mps 750 mmHg 90%

    21 February, Wednesday

    Time Temperature Precipitation Wind Pressure Humidity
    00:00 +23°C° 0.1 mm 1 mps 750 mmHg 89%
    01:00 +23°C° 0.2 mm 1 mps 750 mmHg 89%
    02:00 +23°C° 0.2 mm 1 mps 750 mmHg 89%
    03:00 +23°C° 0.2 mm 1 mps 749 mmHg 89%
    04:00 +23°C° 0.2 mm 1 mps 749 mmHg 91%
    05:00 +23°C° 0.2 mm 1 mps 750 mmHg 92%
    06:00 +23°C° 0.2 mm 1 mps 750 mmHg 94%
    07:00 +25°C° 0.2 mm 2 mps 751 mmHg 87%
    08:00 +26°C° 0.2 mm 2 mps 751 mmHg 81%
    09:00 +28°C° 0.2 mm 3 mps 751 mmHg 75%
    10:00 +28°C° 0.3 mm 3 mps 751 mmHg 72%
    11:00 +29°C° 0.3 mm 3 mps 750 mmHg 70%
    12:00 +30°C° 0.3 mm 3 mps 750 mmHg 67%
    13:00 +30°C° 0.3 mm 3 mps 750 mmHg 68%
    14:00 +29°C° 0.3 mm 3 mps 749 mmHg 68%
    15:00 +29°C° 0.3 mm 3 mps 748 mmHg 68%
    16:00 +28°C° 0.3 mm 2 mps 749 mmHg 75%
    17:00 +26°C° 0.3 mm 2 mps 749 mmHg 82%
    18:00 +25°C° 0.3 mm 1 mps 749 mmHg 90%
    19:00 +24°C° 0.2 mm 1 mps 750 mmHg 91%
    20:00 +24°C° 0.2 mm 1 mps 750 mmHg 92%
    21:00 +23°C° 0.2 mm 1 mps 751 mmHg 93%
    22:00 +23°C° 0.2 mm 1 mps 751 mmHg 93%
    23:00 +23°C° 0.2 mm 1 mps 751 mmHg 92%

    22 February, Thursday

    Time Temperature Precipitation Wind Pressure Humidity
    00:00 +23°C° 0.2 mm 1 mps 751 mmHg 92%
    01:00 +23°C° 0.3 mm 1 mps 750 mmHg 93%
    02:00 +23°C° 0.3 mm 1 mps 750 mmHg 93%
    03:00 +23°C° 0.3 mm 1 mps 750 mmHg 94%
    04:00 +23°C° 0.2 mm 1 mps 750 mmHg 94%
    05:00 +23°C° 0.2 mm 1 mps 750 mmHg 94%
    06:00 +23°C° 0.2 mm 1 mps 751 mmHg 93%
    07:00 +25°C° 0.2 mm 2 mps 751 mmHg 86%
    08:00 +27°C° 0.2 mm 2 mps 751 mmHg 78%
    09:00 +28°C° 0.2 mm 3 mps 752 mmHg 70%
    10:00 +29°C° 0.3 mm 3 mps 751 mmHg 65%
    11:00 +31°C° 0.3 mm 3 mps 751 mmHg 60%
    12:00 +33°C° 0.3 mm 4 mps 750 mmHg 55%
    13:00 +32°C° 0.2 mm 4 mps 750 mmHg 57%
    14:00 +32°C° 0.2 mm 4 mps 749 mmHg 58%
    15:00 +30°C° 0.2 mm 4 mps 748 mmHg 60%
    16:00 +29°C° 0.2 mm 3 mps 749 mmHg 69%
    17:00 +27°C° 0.2 mm 2 mps 749 mmHg 78%
    18:00 +25°C° 0.2 mm 1 mps 749 mmHg 87%
    19:00 +24°C° 0.3 mm 1 mps 750 mmHg 89%
    20:00 +24°C° 0.3 mm 1 mps 750 mmHg 90%
    21:00 +23°C° 0.3 mm 1 mps 751 mmHg 91%
    22:00 +23°C° 0.3 mm 1 mps 750 mmHg 91%
    23:00 +23°C° 0.3 mm 1 mps 750 mmHg 91%

    23 February, Friday

    Time Temperature Precipitation Wind Pressure Humidity
    00:00 +23°C° 0.3 mm 1 mps 750 mmHg 91%
    01:00 +23°C° 0.1 mm 1 mps 750 mmHg 91%
    02:00 +23°C° 0.1 mm 1 mps 750 mmHg 92%
    03:00 +22°C° 0.1 mm 1 mps 749 mmHg 92%
    04:00 +23°C° 0.1 mm 1 mps 749 mmHg 92%
    05:00 +23°C° 0.1 mm 1 mps 750 mmHg 91%
    06:00 +23°C° 0.1 mm 1 mps 750 mmHg 91%
    07:00 +25°C° 0.1 mm 2 mps 750 mmHg 82%
    08:00 +27°C° 0.1 mm 3 mps 751 mmHg 73%
    09:00 +29°C° 0.1 mm 3 mps 751 mmHg 64%
    10:00 +30°C° 0.1 mm 4 mps 751 mmHg 58%
    11:00 +33°C° 0.1 mm 4 mps 750 mmHg 52%
    12:00 +34°C° 0.1 mm 4 mps 750 mmHg 46%
    13:00 +34°C° 0 mm 4 mps 749 mmHg 47%
    14:00 +33°C° 0 mm 4 mps 748 mmHg 48%
    15:00 +33°C° 0 mm 4 mps 748 mmHg 49%
    16:00 +30°C° 0 mm 3 mps 748 mmHg 59%
    17:00 +28°C° 0 mm 2 mps 748 mmHg 69%
    18:00 +26°C° 0 mm 2 mps 749 mmHg 79%
    19:00 +25°C° 0.1 mm 1 mps 749 mmHg 83%
    20:00 +24°C° 0.1 mm 1 mps 750 mmHg 86%
    21:00 +23°C° 0.1 mm 1 mps 750 mmHg 90%
    22:00 +23°C° 0.1 mm 1 mps 750 mmHg 88%
    23:00 +22°C° 0.1 mm 1 mps 750 mmHg 87%
    Show more